Time,TemperatureF,DewpointF,PressureIn,WindDirection,WindDirectionDegrees,WindSpeedMPH,WindSpeedGustMPH,Humidity,HourlyPrecipIn,Conditions,Clouds,dailyrainin,SoftwareType,DateUTC
2013-05-15 00:08:00,68.4,39.6,29.87,WNW,292,5.8,-999.0,35,-99.99,,,0.00,Acu-Link.com,2013-05-15 06:08:00,
2013-05-15 00:23:00,67.8,39.9,29.87,ENE,67,0.0,-999.0,36,-99.99,,,0.00,Acu-Link.com,2013-05-15 06:23:00,
2013-05-15 00:38:00,66.9,40.5,29.87,ESE,112,0.0,-999.0,38,-99.99,,,0.00,Acu-Link.com,2013-05-15 06:38:00,
2013-05-15 00:53:00,66.0,41.6,29.87,NE,45,3.1,-999.0,41,-99.99,,,0.00,Acu-Link.com,2013-05-15 06:53:00,
2013-05-15 01:09:00,66.6,40.2,29.87,East,90,6.7,-999.0,38,-99.99,,,0.00,Acu-Link.com,2013-05-15 07:09:00,
2013-05-15 01:24:00,66.9,41.1,29.87,East,90,2.7,-999.0,39,-99.99,,,0.00,Acu-Link.com,2013-05-15 07:24:00,
2013-05-15 01:39:00,65.8,42.1,29.87,NE,45,1.6,-999.0,42,-99.99,,,0.00,Acu-Link.com,2013-05-15 07:39:00,
2013-05-15 01:54:00,64.6,41.6,29.86,SW,225,0.0,-999.0,43,-99.99,,,0.00,Acu-Link.com,2013-05-15 07:54:00,
2013-05-15 02:10:00,64.0,41.7,29.86,SW,225,0.0,-999.0,44,-99.99,,,0.00,Acu-Link.com,2013-05-15 08:10:00,
2013-05-15 02:25:00,63.7,42.5,29.86,West,270,1.6,-999.0,46,-99.99,,,0.00,Acu-Link.com,2013-05-15 08:25:00,
2013-05-15 02:40:00,63.9,41.5,29.85,South,180,0.0,-999.0,44,-99.99,,,0.00,Acu-Link.com,2013-05-15 08:40:00,
2013-05-15 02:55:00,62.4,41.9,29.85,West,270,0.0,-999.0,47,-99.99,,,0.00,Acu-Link.com,2013-05-15 08:55:00,
2013-05-15 03:10:00,61.5,43.2,29.85,SE,135,0.0,-999.0,51,-99.99,,,0.00,Acu-Link.com,2013-05-15 09:10:00,
2013-05-15 03:25:00,61.5,43.2,29.85,WNW,292,2.2,-999.0,51,-99.99,,,0.00,Acu-Link.com,2013-05-15 09:25:00,
2013-05-15 03:41:00,63.1,42.6,29.86,West,270,2.7,-999.0,47,-99.99,,,0.00,Acu-Link.com,2013-05-15 09:41:00,
2013-05-15 03:56:00,63.7,41.9,29.86,NE,45,4.3,-999.0,45,-99.99,,,0.00,Acu-Link.com,2013-05-15 09:56:00,
2013-05-15 04:11:00,63.0,41.9,29.86,NNE,22,0.0,-999.0,46,-99.99,,,0.00,Acu-Link.com,2013-05-15 10:11:00,
2013-05-15 04:26:00,62.2,42.3,29.86,WSW,247,0.0,-999.0,48,-99.99,,,0.00,Acu-Link.com,2013-05-15 10:26:00,
2013-05-15 04:41:00,62.1,41.6,29.85,East,90,2.7,-999.0,47,-99.99,,,0.00,Acu-Link.com,2013-05-15 10:41:00,
2013-05-15 04:57:00,62.8,40.5,29.85,ENE,67,3.1,-999.0,44,-99.99,,,0.00,Acu-Link.com,2013-05-15 10:57:00,
2013-05-15 05:12:00,62.6,41.5,29.85,SSE,157,1.1,-999.0,46,-99.99,,,0.00,Acu-Link.com,2013-05-15 11:12:00,
2013-05-15 05:27:00,62.2,42.3,29.84,SSW,202,1.1,-999.0,48,-99.99,,,0.00,Acu-Link.com,2013-05-15 11:27:00,
2013-05-15 05:42:00,62.2,42.3,29.84,SSW,202,1.6,-999.0,48,-99.99,,,0.00,Acu-Link.com,2013-05-15 11:42:00,
2013-05-15 05:58:00,62.4,43.0,29.85,SW,225,0.0,-999.0,49,-99.99,,,0.00,Acu-Link.com,2013-05-15 11:58:00,
2013-05-15 06:13:00,62.4,44.0,29.85,South,180,3.1,-999.0,51,-99.99,,,0.00,Acu-Link.com,2013-05-15 12:13:00,
2013-05-15 06:28:00,61.9,44.1,29.85,South,180,0.0,-999.0,52,-99.99,,,0.00,Acu-Link.com,2013-05-15 12:28:00,
2013-05-15 06:58:00,62.8,41.7,29.87,West,270,1.6,-999.0,46,-99.99,,,0.00,Acu-Link.com,2013-05-15 12:58:00,
2013-05-15 07:15:00,63.1,42.0,29.86,South,180,0.0,-999.0,46,-99.99,,,0.00,Acu-Link.com,2013-05-15 13:15:00,
2013-05-15 07:31:00,62.4,45.1,29.87,East,90,1.1,-999.0,53,-99.99,,,0.00,Acu-Link.com,2013-05-15 13:31:00,
2013-05-15 07:46:00,62.4,45.1,29.86,ESE,112,1.6,-999.0,53,-99.99,,,0.00,Acu-Link.com,2013-05-15 13:46:00,
2013-05-15 08:01:00,62.8,45.9,29.86,East,90,1.6,-999.0,54,-99.99,,,0.00,Acu-Link.com,2013-05-15 14:01:00,
2013-05-15 08:16:00,62.8,45.4,29.87,NNE,22,1.1,-999.0,53,-99.99,,,0.00,Acu-Link.com,2013-05-15 14:16:00,
2013-05-15 08:31:00,64.2,46.2,29.87,North,0,1.6,-999.0,52,-99.99,,,0.00,Acu-Link.com,2013-05-15 14:31:00,
2013-05-15 08:47:00,65.7,45.4,29.87,NNE,22,3.1,-999.0,48,-99.99,,,0.00,Acu-Link.com,2013-05-15 14:47:00,
2013-05-15 09:02:00,66.9,44.9,29.88,WSW,247,1.6,-999.0,45,-99.99,,,0.00,Acu-Link.com,2013-05-15 15:02:00,
2013-05-15 09:17:00,68.7,44.7,29.88,East,90,3.8,-999.0,42,-99.99,,,0.00,Acu-Link.com,2013-05-15 15:17:00,
2013-05-15 09:32:00,69.1,45.0,29.87,ESE,112,3.8,-999.0,42,-99.99,,,0.00,Acu-Link.com,2013-05-15 15:32:00,
2013-05-15 09:47:00,70.5,45.0,29.88,ESE,112,3.1,-999.0,40,-99.99,,,0.00,Acu-Link.com,2013-05-15 15:47:00,
2013-05-15 10:03:00,70.2,44.7,29.87,SE,135,3.8,-999.0,40,-99.99,,,0.00,Acu-Link.com,2013-05-15 16:03:00,
2013-05-15 10:18:00,72.5,43.3,29.87,SSE,157,3.1,-999.0,35,-99.99,,,0.00,Acu-Link.com,2013-05-15 16:18:00,
2013-05-15 10:33:00,75.2,44.9,29.86,NE,45,3.1,-999.0,34,-99.99,,,0.00,Acu-Link.com,2013-05-15 16:33:00,
2013-05-15 10:48:00,75.9,43.9,29.86,SE,135,2.7,-999.0,32,-99.99,,,0.00,Acu-Link.com,2013-05-15 16:48:00,
2013-05-15 11:03:00,76.8,43.9,29.86,SSE,157,3.1,-999.0,31,-99.99,,,0.00,Acu-Link.com,2013-05-15 17:03:00,
2013-05-15 11:19:00,78.4,42.6,29.85,SSE,157,1.6,-999.0,28,-99.99,,,0.00,Acu-Link.com,2013-05-15 17:19:00,
2013-05-15 11:34:00,78.4,38.6,29.84,East,90,1.1,-999.0,24,-99.99,,,0.00,Acu-Link.com,2013-05-15 17:34:00,
2013-05-15 11:49:00,82.9,39.0,29.84,SE,135,5.8,-999.0,21,-99.99,,,0.00,Acu-Link.com,2013-05-15 17:49:00,
2013-05-15 12:04:00,84.4,36.2,29.83,NNE,22,4.7,-999.0,18,-99.99,,,0.00,Acu-Link.com,2013-05-15 18:04:00,
2013-05-15 12:19:00,83.5,34.1,29.82,West,270,6.7,-999.0,17,-99.99,,,0.00,Acu-Link.com,2013-05-15 18:19:00,
2013-05-15 12:35:00,83.3,33.9,29.81,West,270,2.2,-999.0,17,-99.99,,,0.00,Acu-Link.com,2013-05-15 18:35:00,
2013-05-15 12:50:00,86.0,34.6,29.80,SW,225,0.0,-999.0,16,-99.99,,,0.00,Acu-Link.com,2013-05-15 18:50:00,
2013-05-15 13:20:00,87.6,34.2,29.78,SW,225,3.8,-999.0,15,-99.99,,,0.00,Acu-Link.com,2013-05-15 19:20:00,
2013-05-15 13:35:00,86.2,34.7,29.77,South,180,3.1,-999.0,16,-99.99,,,0.00,Acu-Link.com,2013-05-15 19:35:00,
2013-05-15 13:51:00,89.8,32.4,29.76,West,270,10.3,-999.0,13,-99.99,,,0.00,Acu-Link.com,2013-05-15 19:51:00,
2013-05-15 14:06:00,86.5,31.7,29.75,NW,315,6.7,-999.0,14,-99.99,,,0.00,Acu-Link.com,2013-05-15 20:06:00,
2013-05-15 14:21:00,88.3,31.2,29.74,WSW,247,14.1,-999.0,13,-99.99,,,0.00,Acu-Link.com,2013-05-15 20:21:00,
2013-05-15 14:36:00,88.5,33.2,29.74,WSW,247,8.9,-999.0,14,-99.99,,,0.00,Acu-Link.com,2013-05-15 20:36:00,
2013-05-15 14:52:00,89.2,30.0,29.73,West,270,8.9,-999.0,12,-99.99,,,0.00,Acu-Link.com,2013-05-15 20:52:00,
2013-05-15 15:07:00,91.9,32.0,29.72,WSW,247,11.9,-999.0,12,-99.99,,,0.00,Acu-Link.com,2013-05-15 21:07:00,
2013-05-15 15:22:00,91.4,31.6,29.71,WNW,292,8.9,-999.0,12,-99.99,,,0.00,Acu-Link.com,2013-05-15 21:22:00,
2013-05-15 15:52:00,92.5,30.3,29.70,West,270,6.3,-999.0,11,-99.99,,,0.00,Acu-Link.com,2013-05-15 21:52:00,
2013-05-15 16:08:00,90.0,28.4,29.70,WNW,292,7.8,-999.0,11,-99.99,,,0.00,Acu-Link.com,2013-05-15 22:08:00,
2013-05-15 16:23:00,88.5,29.4,29.70,WNW,292,7.8,-999.0,12,-99.99,,,0.00,Acu-Link.com,2013-05-15 22:23:00,
2013-05-15 16:38:00,87.6,28.7,29.69,West,270,11.0,-999.0,12,-99.99,,,0.00,Acu-Link.com,2013-05-15 22:38:00,
2013-05-15 16:53:00,84.9,32.1,29.69,North,0,2.7,-999.0,15,-99.99,,,0.00,Acu-Link.com,2013-05-15 22:53:00,
2013-05-15 17:08:00,86.7,31.8,29.69,North,0,13.0,-999.0,14,-99.99,,,0.00,Acu-Link.com,2013-05-15 23:08:00,
2013-05-15 17:24:00,84.2,31.5,29.70,NNE,22,6.3,-999.0,15,-99.99,,,0.00,Acu-Link.com,2013-05-15 23:24:00,
2013-05-15 17:39:00,84.0,31.4,29.70,WNW,292,15.0,-999.0,15,-99.99,,,0.00,Acu-Link.com,2013-05-15 23:39:00,
2013-05-15 17:54:00,83.3,30.8,29.69,NW,315,6.7,-999.0,15,-99.99,,,0.00,Acu-Link.com,2013-05-15 23:54:00,
2013-05-15 18:09:00,82.9,30.5,29.70,ENE,67,3.1,-999.0,15,-99.99,,,0.00,Acu-Link.com,2013-05-16 00:09:00,
2013-05-15 18:24:00,82.4,33.2,29.70,ENE,67,5.8,-999.0,17,-99.99,,,0.00,Acu-Link.com,2013-05-16 00:24:00,
2013-05-15 18:40:00,82.2,33.0,29.70,East,90,4.3,-999.0,17,-99.99,,,0.00,Acu-Link.com,2013-05-16 00:40:00,
2013-05-15 18:55:00,82.0,32.9,29.69,ENE,67,9.4,-999.0,17,-99.99,,,0.00,Acu-Link.com,2013-05-16 00:55:00,
2013-05-15 19:10:00,83.5,34.1,29.70,ENE,67,5.8,-999.0,17,-99.99,,,0.00,Acu-Link.com,2013-05-16 01:10:00,
2013-05-15 19:25:00,84.2,34.6,29.70,WNW,292,1.1,-999.0,17,-99.99,,,0.00,Acu-Link.com,2013-05-16 01:25:00,
2013-05-15 19:41:00,84.4,33.3,29.70,East,90,2.7,-999.0,16,-99.99,,,0.00,Acu-Link.com,2013-05-16 01:41:00,
2013-05-15 19:56:00,81.5,33.9,29.71,ESE,112,1.6,-999.0,18,-99.99,,,0.00,Acu-Link.com,2013-05-16 01:56:00,
2013-05-15 20:11:00,79.9,35.2,29.71,NNW,337,2.7,-999.0,20,-99.99,,,0.00,Acu-Link.com,2013-05-16 02:11:00,
2013-05-15 20:26:00,79.0,34.5,29.73,West,270,1.6,-999.0,20,-99.99,,,0.00,Acu-Link.com,2013-05-16 02:26:00,
2013-05-15 20:41:00,78.3,35.1,29.74,West,270,1.6,-999.0,21,-99.99,,,0.00,Acu-Link.com,2013-05-16 02:41:00,
2013-05-15 21:12:00,76.8,35.1,29.75,West,270,4.7,-999.0,22,-99.99,,,0.00,Acu-Link.com,2013-05-16 03:12:00,
2013-05-15 21:27:00,76.8,35.1,29.77,West,270,2.2,-999.0,22,-99.99,,,0.00,Acu-Link.com,2013-05-16 03:27:00,
2013-05-15 21:43:00,76.3,33.5,29.78,West,270,3.1,-999.0,21,-99.99,,,0.00,Acu-Link.com,2013-05-16 03:43:00,
2013-05-15 21:58:00,75.6,31.7,29.80,West,270,2.7,-999.0,20,-99.99,,,0.00,Acu-Link.com,2013-05-16 03:58:00,
2013-05-15 22:13:00,75.9,23.3,29.80,WSW,247,8.9,-999.0,14,-99.99,,,0.00,Acu-Link.com,2013-05-16 04:13:00,
2013-05-15 22:28:00,74.7,22.3,29.82,NNW,337,3.1,-999.0,14,-99.99,,,0.00,Acu-Link.com,2013-05-16 04:28:00,
2013-05-15 22:43:00,73.2,21.2,29.82,West,270,3.1,-999.0,14,-99.99,,,0.00,Acu-Link.com,2013-05-16 04:43:00,
2013-05-15 22:59:00,72.9,20.9,29.81,West,270,4.7,-999.0,14,-99.99,,,0.00,Acu-Link.com,2013-05-16 04:59:00,
2013-05-15 23:14:00,72.1,21.9,29.81,WNW,292,4.3,-999.0,15,-99.99,,,0.00,Acu-Link.com,2013-05-16 05:14:00,
2013-05-15 23:29:00,70.9,22.5,29.82,North,0,2.7,-999.0,16,-99.99,,,0.00,Acu-Link.com,2013-05-16 05:29:00,
2013-05-15 23:44:00,69.4,24.1,29.82,East,90,1.1,-999.0,18,-99.99,,,0.00,Acu-Link.com,2013-05-16 05:44:00,
2013-05-15 23:59:00,68.4,23.2,29.82,East,90,2.7,-999.0,18,-99.99,,,0.00,Acu-Link.com,2013-05-16 05:59:00,